[[{"header":{"parameterUnit":"m.s-1","parameterCategory":1,"la1":30.2991,"la2":30.254,"lo1":-89.0895,"lo2":-89.0444,"dy":0.0017,"dx":0.0017,"nx":28,"ny":28,"refTime":"2025-07-26T21:00:00:Z","depth":0,"parameterNumber":2,"parameterNumberName":"U-component_of_WINDS"},"data":[0,0,0,0,0,0,0,0,0,0,0,0,0,0,0,0,0,0,0,0,0,0,0,0,0,0,0,0,0,0,0,0,0,0,0,0,0,0,0,0,0,0,0,0,0,0,0,0,0,0,0,0,0,0,0,0,0,0,0.9274,0.9275,0,0.9405,0.9407,0.9408,0.9463,0.9463,0.9462,0.9462,0.9599,0.9603,0.9606,0,0,0,0,0,0,0,0,0,0,0,0,0,0.9068,0.9072,0.9273,0.9275,0.9277,0.9405,0.9407,0.9409,0.9463,0.9463,0.9462,0.9462,0.9597,0.9602,0.9607,0,0,0,0,0,0,0,0,0,0,0,0,0,0.9175,0.9073,0.9273,0.9319,0.9325,0.9405,0.9407,0.9409,0.9463,0.9463,0.9462,0.9462,0.9596,0.9602,0.9607,0.9652,0,0,0.9625,0.9628,0,0,0,0,0,0,0,0,0.9168,0.9182,0.9311,0.9316,0.9322,0.9417,0.9385,0.9491,0.9463,0.9411,0.9462,0.9462,0.9539,0.9549,0.9575,0.9659,0.9664,0.9626,0.9629,0.9632,0.9634,0,0,0,0,0,0,0,0.9161,0.9177,0.9326,0.9313,0.932,0.9333,0.9348,0.9405,0.9476,0.9415,0.9419,0.9434,0.9542,0.9569,0.9579,0.9666,0.9626,0.9631,0.9634,0.9637,0.9792,0.9793,0,0,0,0,0,0,0.9146,0.917,0.9322,0.933,0.9243,0.9337,0.9354,0.9387,0.9475,0.9488,0.9434,0.9436,0.956,0.9572,0.9584,0.9641,0.9632,0.9637,0.9641,0.9791,0.9792,0.9793,0,0,0,0,0,0,0.9141,0.9159,0.9316,0.9251,0.9272,0.9341,0.9379,0.939,0.9418,0.949,0.9502,0.9449,0.956,0.9575,0.9634,0.9647,0.964,0.9645,0.9791,0.9792,0.9792,0.9757,0,0,0,0,0,0,0.9135,0.9157,0.9175,0.9251,0.9275,0.9364,0.9379,0.9393,0.9427,0.9431,0.9507,0.9519,0.9561,0.9625,0.964,0.9655,0.965,0.979,0.9791,0.9792,0.9757,0.9756,0.9756,0,0,0,0,0,0.9128,0.916,0.9175,0.9193,0.9299,0.9365,0.9379,0.9425,0.9428,0.9446,0.9492,0.9517,0.9643,0.9631,0.9648,0.9665,0.9789,0.9791,0.9792,0.9758,0.9757,0.9756,0,0,0,0,0,0,0.9084,0.9171,0.9189,0.9247,0.9298,0.9374,0.9399,0.9423,0.9475,0.9476,0.9532,0.9549,0.9602,0.964,0.9625,0.9712,0.9718,0.9723,0.9686,0.9686,0.9685,0.9675,0.9655,0,0,0,0,0,0.9081,0.9127,0.9201,0.9245,0.9269,0.9329,0.936,0.9391,0.9446,0.9469,0.9519,0.9572,0.9624,0.9657,0.9708,0.9762,0.978,0.9782,0.9781,0.978,0.9784,0.9815,0.9817,0.9797,0.9797,0.9797,0,0,0.9076,0.9129,0.9155,0.9237,0.9281,0.9327,0.9347,0.9396,0.9431,0.9476,0.9535,0.9573,0.9636,0.9693,0.972,0.9725,0.9793,0.9782,0.9781,0.9785,0.9817,0.9818,0.982,0.9798,0.9798,0.9798,0,0,0.9089,0.9134,0.9176,0.9218,0.9283,0.9323,0.9332,0.9405,0.9432,0.9491,0.9525,0.9568,0.9656,0.9699,0.9732,0.976,0.9785,0.9775,0.9772,0.9801,0.9803,0.9804,0.9814,0.9817,0.9779,0.9779,0.9779,0,0.9075,0.9146,0.9194,0.924,0.9275,0.9317,0.9359,0.9398,0.9477,0.95,0.9504,0.9614,0.966,0.9726,0.9733,0.9759,0.9771,0.9768,0.9799,0.9801,0.9803,0.9813,0.9816,0.9777,0.9777,0.9778,0.9778,0,0.9124,0.9173,0.9199,0.9273,0.931,0.9354,0.9408,0.9441,0.9468,0.9507,0.9566,0.9622,0.9685,0.9703,0.9731,0.9773,0.9774,0.9788,0.9795,0.9802,0.9813,0.9817,0.9775,0.9776,0.9776,0.9776,0,0,0.9116,0.9214,0.9223,0.9256,0.9331,0.9369,0.9415,0.9475,0.9502,0.9554,0.9594,0.9666,0.9678,0.9716,0.9749,0.9774,0.9792,0.9785,0.9787,0.9784,0.9842,0.9832,0.9836,0.9808,0.9809,0.981,0.9837,0,0.9139,0.9223,0.9266,0.9331,0.9376,0.9416,0.9455,0.9504,0.9542,0.9585,0.9627,0.9677,0.969,0.9712,0.9739,0.9784,0.9805,0.9783,0.9846,0.9847,0.9829,0.9841,0.9831,0.9854,0.9841,0.9842,0.9843,0,0.9179,0.923,0.9298,0.9366,0.9387,0.9422,0.948,0.9522,0.9578,0.9603,0.9644,0.9676,0.9725,0.9728,0.9796,0.978,0.9808,0.9834,0.9836,0.9844,0.9846,0.985,0.9862,0.9865,0.985,0.9849,0.9848,0,0.9165,0.9251,0.9303,0.9331,0.9411,0.9434,0.9469,0.9525,0.9558,0.961,0.9632,0.9688,0.9719,0.9761,0.9807,0.9805,0.9871,0.9878,0.9893,0.9892,0.9906,0.9904,0.9923,0.9923,0.9923,0.9923,0.9923,0,0.9187,0.9228,0.9298,0.933,0.9376,0.9425,0.947,0.9507,0.9557,0.9597,0.9634,0.9671,0.9729,0.9773,0.9809,0.9859,0.9873,0.9895,0.9904,0.9892,0.9889,0.9911,0.9911,0.9924,0.9924,0.9923,0.9923,0,0.918,0.9229,0.9288,0.9359,0.9378,0.9408,0.9469,0.9502,0.954,0.959,0.9604,0.9664,0.9718,0.9767,0.9839,0.9863,0.9914,0.9926,0.9894,0.99,0.9912,0.991,0.9946,0.9953,0.9948,0.9948,0.9948,0,0.9191,0.9223,0.9297,0.9326,0.936,0.9407,0.9441,0.949,0.9524,0.959,0.9614,0.967,0.9717,0.98,0.985,0.9905,0.9918,0.9927,0.9927,0.9913,0.9919,0.9916,0.9919,0.9926,0.9926,0.9926,0.9926,0,0.9206,0.9228,0.9276,0.9331,0.937,0.9416,0.9464,0.9486,0.9544,0.958,0.9634,0.9671,0.9743,0.9798,0.9857,0.9893,0.9919,0.9925,0.9932,0.992,0.9901,0.9911,0.9892,0.9925,0.9925,0.9925,0.9925,0.9925,0.9209,0.9239,0.9295,0.9346,0.9387,0.943,0.9463,0.9505,0.9552,0.9614,0.964,0.9695,0.975,0.9833,0.9868,0.9912,0.9917,0.9927,0.9929,0.9931,0.9928,0.9893,0.9923,0.9923,0.9923,0.9923,0.9923,0,0.9225,0.9263,0.931,0.9374,0.9414,0.9434,0.9488,0.952,0.9568,0.9616,0.9662,0.9724,0.9777,0.983,0.9886,0.9911,0.9924,0.9924,0.9923,0.9931,0.992,0.9909,0.9912,0.9912,0.9912,0.9912,0.9912,0.9912,0.9238,0.929,0.9318,0.939,0.9428,0.9482,0.951,0.955,0.9589,0.9657,0.9701,0.9735,0.9785,0.9845,0.9894,0.9909,0.9928,0.9924,0.9941,0.9931,0.9931,0.9932,0.9922,0.9927,0.9927,0.9949,0.9949,0.9949]},{"header":{"parameterUnit":"m.s-1","parameterCategory":1,"la1":30.2991,"la2":30.254,"lo1":-89.0895,"lo2":-89.0444,"dy":0.0017,"dx":0.0017,"nx":28,"ny":28,"refTime":"2025-07-26T21:00:00:Z","depth":0,"parameterNumber":3,"parameterNumberName":"V-component_of_WINDS"},"data":[0,0,0,0,0,0,0,0,0,0,0,0,0,0,0,0,0,0,0,0,0,0,0,0,0,0,0,0,0,0,0,0,0,0,0,0,0,0,0,0,0,0,0,0,0,0,0,0,0,0,0,0,0,0,0,0,0,0,3.513,3.513,0,3.5097,3.5097,3.5096,3.5107,3.5108,3.5108,3.5109,3.507,3.5068,3.5066,0,0,0,0,0,0,0,0,0,0,0,0,0,3.5196,3.5195,3.513,3.513,3.513,3.5097,3.5097,3.5096,3.5107,3.5108,3.5109,3.5109,3.507,3.5068,3.5066,0,0,0,0,0,0,0,0,0,0,0,0,0,3.5166,3.5195,3.513,3.5131,3.5131,3.5097,3.5097,3.5096,3.5107,3.5108,3.5109,3.511,3.5071,3.5068,3.5066,3.5028,0,0,3.5058,3.5057,0,0,0,0,0,0,0,0,3.5168,3.5163,3.5131,3.5131,3.5131,3.5107,3.5106,3.5073,3.5106,3.5116,3.5109,3.511,3.5081,3.5078,3.5069,3.5027,3.5025,3.5058,3.5056,3.5055,3.5054,0,0,0,0,0,0,0,3.517,3.5165,3.5117,3.5131,3.513,3.5131,3.5128,3.51,3.5092,3.5115,3.5116,3.5112,3.5081,3.5071,3.5068,3.5024,3.5058,3.5056,3.5054,3.5053,3.4946,3.4945,0,0,0,0,0,0,3.5173,3.5167,3.5118,3.5116,3.5152,3.5129,3.5125,3.5114,3.5093,3.5091,3.5111,3.5112,3.5075,3.5071,3.5067,3.502,3.5055,3.5053,3.5051,3.4948,3.4946,3.4945,0,0,0,0,0,0,3.5174,3.5168,3.5119,3.5142,3.5135,3.5127,3.5113,3.5112,3.5103,3.509,3.5088,3.5103,3.5076,3.507,3.5038,3.5018,3.5052,3.5049,3.4949,3.4947,3.4945,3.4926,0,0,0,0,0,0,3.5176,3.5169,3.5156,3.5141,3.5134,3.5093,3.5112,3.5111,3.5099,3.5101,3.5082,3.508,3.5076,3.5041,3.5035,3.5015,3.5047,3.4951,3.4948,3.4946,3.4928,3.4924,3.492,0,0,0,0,0,3.5178,3.5151,3.5155,3.5149,3.5118,3.5092,3.5087,3.5086,3.5098,3.5083,3.5075,3.508,3.5022,3.5038,3.5031,3.501,3.4952,3.4949,3.4946,3.493,3.4925,3.492,0,0,0,0,0,0,3.5163,3.5149,3.5154,3.5121,3.5108,3.5094,3.5076,3.508,3.5061,3.5064,3.5061,3.5056,3.5022,3.5013,3.5031,3.4971,3.4988,3.4984,3.4979,3.4973,3.4969,3.4971,3.5045,0,0,0,0,0,3.5156,3.5137,3.5126,3.5098,3.5091,3.5085,3.5073,3.5073,3.5058,3.5052,3.5041,3.5024,3.5002,3.4987,3.4966,3.4927,3.4922,3.4909,3.4905,3.4902,3.4897,3.4874,3.4867,3.4935,3.4935,3.4935,0,0,3.514,3.5131,3.5119,3.5095,3.5084,3.5063,3.508,3.5057,3.504,3.5048,3.5016,3.5007,3.4988,3.4952,3.4935,3.4943,3.4877,3.4898,3.4895,3.4893,3.487,3.4863,3.4858,3.4933,3.4934,3.4934,0,0,3.5101,3.5093,3.5069,3.5058,3.5042,3.5038,3.5032,3.5017,3.5011,3.498,3.4985,3.4964,3.4926,3.4912,3.49,3.4854,3.4858,3.4847,3.4824,3.4801,3.4796,3.4791,3.4772,3.4766,3.4843,3.4843,3.4843,0,3.5084,3.5054,3.5055,3.5031,3.5019,3.5027,3.5,3.4989,3.4966,3.4957,3.4967,3.4918,3.4906,3.4865,3.4854,3.4845,3.4836,3.4849,3.4797,3.4792,3.4787,3.477,3.4763,3.4842,3.4842,3.4842,3.4842,0,3.5032,3.5011,3.4992,3.4972,3.4958,3.4933,3.4928,3.4913,3.4914,3.4908,3.4874,3.486,3.4835,3.4826,3.4826,3.4784,3.4789,3.4798,3.4815,3.478,3.4763,3.4756,3.484,3.4841,3.4841,3.4841,0,0,3.4981,3.4962,3.4955,3.4944,3.4927,3.491,3.4884,3.4861,3.4848,3.4832,3.4808,3.4776,3.4783,3.4769,3.4768,3.4748,3.4709,3.4758,3.4758,3.4748,3.4659,3.4652,3.4644,3.4712,3.4711,3.471,3.466,0,3.494,3.4896,3.4896,3.4855,3.4834,3.484,3.4817,3.4803,3.4796,3.4776,3.4768,3.4744,3.4757,3.4748,3.4729,3.4718,3.4691,3.4722,3.4688,3.4686,3.4691,3.4636,3.4628,3.4582,3.4654,3.4653,3.4652,0,3.4885,3.4868,3.4826,3.481,3.4801,3.4781,3.4759,3.474,3.4723,3.4719,3.4703,3.4705,3.4675,3.4694,3.4652,3.4673,3.4659,3.4652,3.465,3.4645,3.4666,3.4627,3.4567,3.4559,3.4642,3.4643,3.4644,0,3.485,3.4817,3.4786,3.4778,3.4759,3.4744,3.4736,3.472,3.4706,3.4686,3.4676,3.4653,3.4639,3.462,3.4614,3.4628,3.4571,3.459,3.4565,3.4565,3.4551,3.4552,3.4486,3.4545,3.4545,3.4545,3.4546,0,3.4802,3.4775,3.477,3.4752,3.4721,3.472,3.4688,3.468,3.4666,3.4644,3.4647,3.4626,3.462,3.4597,3.4591,3.4556,3.455,3.4545,3.4543,3.4543,3.4544,3.4533,3.4535,3.4544,3.4544,3.4544,3.4545,0,3.4757,3.4754,3.472,3.4706,3.4701,3.4679,3.4665,3.4646,3.464,3.4611,3.4604,3.4594,3.4566,3.4559,3.4526,3.4522,3.448,3.4482,3.4486,3.4485,3.446,3.4461,3.4383,3.4371,3.444,3.444,3.4439,0,3.4726,3.4706,3.4689,3.4676,3.4666,3.4644,3.463,3.4627,3.4612,3.459,3.4572,3.4546,3.4524,3.448,3.4467,3.4441,3.4442,3.4416,3.4438,3.4438,3.4439,3.4439,3.4436,3.4411,3.4411,3.441,3.441,0,3.4671,3.467,3.465,3.4629,3.4612,3.4595,3.4579,3.4567,3.4561,3.4543,3.4516,3.45,3.4466,3.4439,3.4412,3.44,3.4403,3.4403,3.4395,3.4394,3.4397,3.4393,3.4472,3.4405,3.4405,3.4405,3.4406,3.4406,3.4631,3.4612,3.4597,3.4574,3.4562,3.4546,3.4527,3.4519,3.4497,3.447,3.4469,3.4439,3.442,3.4385,3.4372,3.4346,3.4354,3.4343,3.434,3.4337,3.4334,3.4402,3.4342,3.4342,3.4342,3.4342,3.4342,0,3.4574,3.4564,3.4544,3.4521,3.4502,3.4509,3.4491,3.4474,3.4448,3.4431,3.441,3.4377,3.435,3.4336,3.4308,3.4291,3.4291,3.4283,3.4283,3.428,3.433,3.4338,3.4283,3.4283,3.4283,3.4283,3.4283,3.4283,3.4542,3.451,3.4507,3.4468,3.4458,3.443,3.4419,3.4403,3.4389,3.4354,3.4332,3.4323,3.4306,3.4277,3.4252,3.4248,3.4237,3.4228,3.4224,3.4271,3.4277,3.4283,3.429,3.4226,3.4226,3.4176,3.4176,3.4175]}]]